Location: ??????????
(54.4061°N, 22.6114°E)
Time: 06:23:58
(UTC+00:00)

STARLINK-49 - Pass Details

Date: 23 October 2019
Orbit: 548 x 551 km, 53.0° (Epoch: 13 November)

Event Time Altitude Azimuth Distance (km) Brightness Sun altitude
Rises 16:06:25 0° 266° (W) 2,717 9.7 -8.2°
Reaches altitude 10° 16:08:39 10° 265° (W) 1,824 8.0 -8.5°
Maximum altitude 16:12:47 75° 180° (S) 574 3.7 -9.1°
Enters shadow 16:16:29 13° 96° (E) 1,657 5.4 -9.7°
